Content
SEND FEEDBACK

Daily
Averages
Monthly
Summary
United States of America

COMFORT, TEXAS


Home > North America > United States > Texas
Elevation: 1740 feet     Latitude: 30 08N     Longitude: 098 49W

WEATHER
 
SELECT A DAY
Number of Records: 303,845;   Date Range: 6/6/02 - 10/20/14
 
SHARE

PRINT THIS DATA

[ ← Previous Day ]
WEATHER ALMANAC - FEBRUARY 13, 2013
[ Next Day → ]
[ °C ]   °F
Weather ElementAverageHighLow
Temperature40.8 °F59 °F (4:35 pm) (12:55 pm)
Dewpoint27.5 °F34.3 °F (10:15 am) (7:00 pm)
Humidity65.3 %100 % (6:35 am)23 % (4:55 pm)
Barometer28.80 in30.16 in (9:35 am) (7:00 pm)
Wind Speed3.3 mph10.4 mph (2:35 pm)
Wind Gust16.1 mph (2:35 pm)
Weather ElementAverage
Visibility10 mi
Wind DirectionSSE (161.9 °)

Weather ElementTotal
Precipitation0.03 in
Heating Degree Days35.5 (Base 65)
Averaged from 70 records on February 13, 2013
WEATHER CONDITIONS BREAKOUT
WIND DIRECTION BREAKOUT
WEATHER BY HOUR - FEBRUARY 13, 2013
[ °C ]   °F
Local TimeTemperatureDewpointHumidityBarometerVisibilityWind DirectionWind SpeedGust SpeedPrecipitationEventsConditions
12:35 AM39.7 °F32.0 °F74 %30.09 in10.0 miNNW (330°)8.1 mphClear
12:55 AM39.2 °F32.0 °F75 %30.10 in10.0 miNW (320°)9.2 mphClear
1:15 AM38.5 °F32.0 °F78 %30.09 in10.0 miNNW (330°)8.1 mphClear
1:35 AM37.6 °F32.0 °F80 %30.09 in10.0 miNW (310°)5.8 mphClear
2:15 AM36.7 °F31.8 °F83 %30.12 in10.0 miWNW (290°)4.6 mphClear
2:35 AM35.6 °F31.8 °F86 %30.12 in10.0 miWNW (300°)3.5 mphClear
2:55 AM35.6 °F31.3 °F84 %30.11 in10.0 miWNW (300°)5.8 mphClear
3:15 AM34.2 °F31.1 °F89 %30.11 in10.0 miNW (310°)3.5 mphClear
3:35 AM33.4 °F31.1 °F91 %30.11 in10.0 miCalmClear
3:55 AM31.8 °F30.4 °F94 %30.09 in10.0 miNW (320°)3.5 mphClear
4:15 AM32.0 °F30.4 °F94 %30.10 in10.0 miCalmClear
4:35 AM32.4 °F30.4 °F92 %30.10 in10.0 miCalmClear
4:55 AM32.4 °F30.6 °F93 %30.10 in10.0 miCalmClear
5:15 AM30.7 °F29.1 °F94 %30.10 in10.0 miCalmClear
5:35 AM31.1 °F30.2 °F96 %30.11 in10.0 miSSW (210°)3.5 mphClear
5:55 AM30.4 °F29.3 °F96 %30.11 in10.0 miCalmClear
6:15 AM30.7 °F29.7 °F96 %30.12 in10.0 miCalmClear
6:35 AM30.0 °F30.0 °F100 %30.12 in10.0 miCalmClear
6:55 AM30.2 °F30.2 °F100 %30.12 in10.0 miCalmClear
7:15 AM30.4 °F30.4 °F100 %30.13 in10.0 miCalmClear
7:35 AM30.0 °F30.0 °F100 %30.13 in10.0 miWest (260°)4.6 mphClear
7:55 AM32.0 °F31.8 °F99 %30.14 in10.0 miWest (280°)3.5 mphClear
8:15 AM33.4 °F32.4 °F96 %30.14 in10.0 miCalmClear
8:35 AM35.4 °F32.5 °F89 %30.14 in10.0 miWest (260°)3.5 mphClear
8:55 AM37.0 °F33.4 °F87 %30.15 in10.0 miCalmClear
9:15 AM40.1 °F34.2 °F79 %30.15 in10.0 miNW (310°)6.9 mphClear
9:35 AM42.3 °F34.0 °F72 %30.16 in10.0 miNW (320°)6.9 mphClear
9:55 AM43.7 °F34.0 °F69 %30.16 in10.0 miNNW (330°)5.8 mphClear
10:15 AM45.7 °F34.3 °F65 %30.15 in10.0 miWNW (300°)5.8 mphClear
10:35 AM47.8 °F33.1 °F57 %30.16 in10.0 miNorth (360°)6.9 mphClear
10:55 AM49.3 °F32.7 °F53 %30.15 in10.0 miNorth (350°)3.5 mphClear
11:15 AM50.5 °F31.8 °F49 %30.14 in10.0 miNNE (20°)5.8 mphClear
11:35 AM50.9 °F30.6 °F46 %30.14 in10.0 miCalmClear
11:55 AM52.7 °F31.8 °F45 %30.13 in10.0 miNNE (20°)4.6 mphClear
12:15 PM53.1 °F31.5 °F44 %30.12 in10.0 miNNW (330°)4.6 mphClear
12:35 PM53.8 °F30.6 °F41 %30.11 in10.0 miNNW (330°)6.9 mphClear
12:55 PM0.0 °F0.0 °F10.0 miNorthClear
1:15 PM0.0 °F0.0 °FNorth
1:35 PM0.0 °F0.0 °FNorth
1:55 PM56.8 °F23.7 °F28 %30.07 in10.0 miNNW (330°)6.9 mph0.03 inClear
2:15 PM57.9 °F23.0 °F26 %30.06 in10.0 miNW (320°)9.2 mphClear
2:35 PM58.6 °F23.7 °F26 %30.05 in10.0 miNorth (360°)10.4 mph16.1 mphClear
2:55 PM57.6 °F21.6 °F25 %30.04 in10.0 miNW (310°)5.8 mph9.2 mphClear
3:15 PM58.3 °F22.5 °F25 %30.04 in10.0 miNorth (360°)5.8 mphClear
3:35 PM58.5 °F23.0 °F26 %30.03 in10.0 miWNW (290°)5.8 mphClear
3:55 PM58.1 °F24.6 °F28 %30.03 in10.0 miCalmClear
4:15 PM58.5 °F23.0 °F26 %30.03 in10.0 miNW (320°)5.8 mphClear
4:35 PM59.0 °F22.8 °F25 %30.03 in10.0 miNNW (340°)5.8 mphClear
4:55 PM58.6 °F20.5 °F23 %30.03 in10.0 miNorth (350°)5.8 mphClear
5:15 PM58.3 °F21.0 °F24 %30.02 in10.0 miNorth (350°)4.6 mphClear
5:35 PM57.6 °F19.8 °F23 %30.03 in10.0 miCalmClear
5:55 PM56.8 °F22.8 °F27 %30.03 in10.0 miNorth (10°)4.6 mphClear
6:15 PM55.8 °F21.0 °F26 %30.03 in10.0 miCalmClear
6:35 PM53.8 °F22.6 °F30 %30.03 in10.0 miEast (80°)3.5 mphClear
6:55 PM51.8 °F23.0 °F33 %30.03 in10.0 miENE (70°)3.5 mphClear
7:15 PM46.0 °F24.8 °F43 %30.04 in10.0 miENE (70°)3.5 mphClear
7:35 PM45.0 °F25.3 °F46 %30.04 in10.0 miCalmClear
7:55 PM40.8 °F28.6 °F62 %30.04 in10.0 miCalmClear
8:15 PM39.6 °F29.1 °F66 %30.05 in10.0 miCalmClear
8:35 PM38.8 °F30.4 °F72 %30.06 in10.0 miCalmClear
8:55 PM39.7 °F31.1 °F71 %30.06 in10.0 miCalmClear
9:15 PM37.6 °F30.4 °F75 %30.06 in10.0 miCalmClear
9:35 PM36.9 °F30.4 °F77 %30.07 in10.0 miCalmClear
9:55 PM36.1 °F30.0 °F78 %30.07 in10.0 miNW (310°)3.5 mphClear
10:15 PM36.9 °F30.6 °F78 %30.08 in10.0 miCalmClear
10:35 PM36.0 °F29.8 °F78 %30.08 in10.0 miCalmClear
10:55 PM35.1 °F27.7 °F74 %30.09 in10.0 miNW (320°)3.5 mphClear
11:15 PM32.2 °F27.7 °F83 %30.09 in10.0 miNNW (340°)3.5 mphClear
11:35 PM34.2 °F28.8 °F81 %30.09 in10.0 miNW (310°)4.6 mphClear
11:55 PM32.0 °F28.2 °F86 %30.08 in10.0 miCalmClear
Hourly data recorded from KT82, located miles away from Comfort, Texas







STORIES FROM OUR PARTNERS